Voltar ao catálogo

FENGYUN 1C DEB

AtivoPO
NORAD 31673·DEBRIS·🇨🇳 China

Lançado May 10, 1999 de Taiyuan Satellite Launch Center

Loading…

Próximas Passagens (próximas 24 horas)

TLE

AtualizadoSource: Space-Track

Época: Sep 13, 2026, 21:06 UTC

1 31673U 99025CCF 26256.87975752  .00000328  00000-0  12977-3 0  9998
2 31673  99.3499 118.1903 0124326 336.5955  22.9597 14.32278755688293

Acompanhe FENGYUN 1C DEB em tempo real com AllMySat

Download on the App Store